Date String (YYYY-MM-DD hh:mm:ss) UTC,Instrument flags,Ambient pressure (hPa),Sample flow (lpm),Bypass flow (lpm),Sample temperature (°C),Ambient temperature (°C),ASC tube jacket temperature (°C),LED temperature (°C),Box temperature (°C),Sample RH (%),Span deviation,Mass concentration (μg/m³),Mass concentration (μg/m³),Mass concentration (μg/m³)
DateTimeUTC,F1_M11,P_M11,Q1_M11,Q2_M11,T1_M11,T2_M11,T3_M11,T4_M11,T5_M11,U1_M11,ZSPAN_M11,X0_M11,X2_M11,X1_M11
2023-05-05 17:00:00,,0824.4,4.98,0.00,30.4,28.6,00.0,38.6,31.9,17.7,0000.0,0010.97,0003.87,0002.56
2023-05-05 17:01:00,,0824.4,5.00,0.00,30.3,26.9,00.0,38.5,31.6,17.8,0000.0,0010.77,0003.87,0002.58
2023-05-05 17:02:00,,0824.4,5.00,0.00,30.2,26.3,00.0,38.5,31.5,17.7,0000.0,0010.61,0003.86,0002.63
2023-05-05 17:03:00,,0824.4,5.01,0.00,30.2,26.5,00.0,38.5,31.3,17.5,0000.0,0010.35,0003.89,0002.65
2023-05-05 17:04:00,,0824.4,4.99,0.00,30.1,26.8,00.0,38.5,31.3,17.6,0000.0,0009.85,0003.90,0002.67
2023-05-05 17:05:00,,0824.4,5.00,0.00,30.0,27.1,00.0,38.5,31.4,17.8,0000.0,0009.80,0003.87,0002.68
2023-05-05 17:06:00,,0824.3,5.00,0.00,30.0,27.4,00.0,38.5,31.4,18.1,0000.0,0010.09,0003.96,0002.69
2023-05-05 17:07:00,,0824.4,4.99,0.00,30.0,27.6,00.0,38.5,31.4,18.2,0000.0,0009.81,0003.98,0002.69
2023-05-05 17:08:00,,0824.4,5.00,0.00,30.0,27.8,00.0,38.5,31.4,18.1,0000.0,0009.73,0004.03,0002.72
2023-05-05 17:09:00,,0824.4,5.00,0.00,30.0,28.0,00.0,38.4,31.5,18.3,0000.0,0009.77,0004.06,0002.76
2023-05-05 17:10:00,,0824.4,5.00,0.00,30.0,28.2,00.0,38.4,31.5,18.1,0000.0,0009.10,0004.05,0002.78
2023-05-05 17:11:00,,0824.4,5.00,0.00,30.1,28.3,00.0,38.4,31.5,17.7,0000.0,0008.91,0004.04,0002.77
2023-05-05 17:12:00,,0824.4,5.01,0.00,30.1,28.4,00.0,38.4,31.6,17.8,0000.0,0009.11,0004.11,0002.80
2023-05-05 17:13:00,,0824.3,4.98,0.00,30.0,28.4,00.0,38.4,31.5,17.5,0000.0,0009.14,0004.13,0002.82
2023-05-05 17:14:00,,0824.3,5.00,0.00,30.0,28.5,00.0,38.4,31.6,17.8,0000.0,0008.80,0004.11,0002.84
2023-05-05 17:15:00,,0824.4,5.01,0.00,30.0,28.5,00.0,38.4,31.5,17.6,0000.0,0008.68,0004.13,0002.85
2023-05-05 17:16:00,,0824.3,5.01,0.00,30.1,28.6,00.0,38.4,31.5,17.8,0000.0,0008.89,0004.18,0002.87
2023-05-05 17:17:00,,0824.4,5.00,0.00,30.1,28.6,00.0,38.4,31.6,17.8,0000.0,0008.79,0004.18,0002.88
2023-05-05 17:18:00,,0824.3,4.99,0.00,30.1,28.7,00.0,38.4,31.6,17.6,0000.0,0008.84,0004.18,0002.90
2023-05-05 17:19:00,,0824.3,5.00,0.00,30.1,28.7,00.0,38.5,31.6,17.7,0000.0,0008.85,0004.18,0002.92
2023-05-05 17:20:00,,0824.3,5.00,0.00,30.1,28.7,00.0,38.5,31.6,17.6,0000.0,0008.84,0004.20,0002.93
2023-05-05 17:21:00,,0824.3,5.01,0.00,30.1,28.8,00.0,38.5,31.7,17.8,0000.0,0009.04,0004.24,0002.95
2023-05-05 17:22:00,,0824.3,5.01,0.00,30.2,28.8,00.0,38.5,31.7,17.6,0000.0,0009.32,0004.23,0002.96
2023-05-05 17:23:00,,0824.2,5.00,0.00,30.2,28.8,00.0,38.5,31.7,17.5,0000.0,0009.94,0004.26,0003.01
2023-05-05 17:24:00,,0824.2,4.99,0.00,30.2,28.8,00.0,38.5,31.7,17.6,0000.0,0009.98,0004.26,0003.02
2023-05-05 17:25:00,,0824.2,5.01,0.00,30.2,28.8,00.0,38.5,31.7,17.4,0000.0,0010.42,0004.28,0003.02
2023-05-05 17:26:00,,0824.1,5.01,0.00,30.2,28.8,00.0,38.5,31.8,17.2,0000.0,0010.54,0004.28,0003.04
2023-05-05 17:27:00,,0824.1,4.99,0.00,30.2,28.8,00.0,38.5,31.8,17.5,0000.0,0010.67,0004.28,0003.03
2023-05-05 17:28:00,,0824.1,5.00,0.00,30.2,28.9,00.0,38.5,31.8,17.2,0000.0,0010.99,0004.27,0003.04
2023-05-05 17:29:00,,0824.1,5.00,0.00,30.2,28.9,00.0,38.5,31.8,17.2,0000.0,0010.87,0004.25,0003.05
2023-05-05 17:30:00,,0824.1,4.99,0.00,30.2,27.7,00.0,38.5,31.7,17.1,0000.0,0011.13,0004.29,0003.04
2023-05-05 17:31:00,,0824.1,5.00,0.00,30.2,26.0,00.0,38.4,31.4,17.5,0000.0,0011.34,0004.31,0003.03
2023-05-05 17:32:00,,0824.0,5.00,0.00,30.1,25.6,00.0,38.3,31.3,17.5,0000.0,0011.20,0004.31,0003.04
2023-05-05 17:33:00,,0824.1,5.00,0.00,30.0,25.9,00.0,38.3,31.1,17.6,0000.0,0011.17,0004.35,0003.05
2023-05-05 17:34:00,,0824.0,5.02,0.00,29.9,26.2,00.0,38.3,31.1,17.8,0000.0,0010.85,0004.36,0003.03
2023-05-05 17:35:00,,0824.0,4.99,0.00,29.9,26.6,00.0,38.3,31.2,18.1,0000.0,0010.80,0004.33,0002.99
2023-05-05 17:36:00,,0824.2,4.99,0.00,29.8,26.9,00.0,38.3,31.2,17.9,0000.0,0010.89,0004.28,0002.95
2023-05-05 17:37:00,,0824.1,5.00,0.00,29.8,27.2,00.0,38.3,31.2,17.8,0000.0,0010.82,0004.25,0002.92
2023-05-05 17:38:00,,0824.1,5.00,0.00,29.8,27.5,00.0,38.3,31.3,17.8,0000.0,0011.34,0004.25,0002.94
2023-05-05 17:39:00,,0824.2,4.98,0.00,29.8,27.7,00.0,38.3,31.3,17.5,0000.0,0011.00,0004.26,0002.93
2023-05-05 17:40:00,,0824.0,5.01,0.00,29.8,27.9,00.0,38.3,31.3,17.3,0000.0,0010.98,0004.27,0002.92
2023-05-05 17:41:00,,0824.0,5.00,0.00,29.8,28.0,00.0,38.3,31.3,17.4,0000.0,0010.83,0004.24,0002.92
2023-05-05 17:42:00,,0824.1,4.99,0.00,29.9,28.1,00.0,38.3,31.4,17.2,0000.0,0010.53,0004.17,0002.92
2023-05-05 17:43:00,,0824.0,5.00,0.00,29.9,28.2,00.0,38.3,31.4,16.9,0000.0,0010.48,0004.13,0002.89
2023-05-05 17:44:00,,0824.0,5.00,0.00,29.9,28.3,00.0,38.3,31.4,16.9,0000.0,0010.42,0004.12,0002.91
2023-05-05 17:45:00,,0824.0,5.01,0.00,29.9,28.4,00.0,38.3,31.4,16.9,0000.0,0010.46,0004.13,0002.92
2023-05-05 17:46:00,,0824.0,4.99,0.00,29.9,28.5,00.0,38.3,31.4,17.0,0000.0,0010.65,0004.13,0002.96
2023-05-05 17:47:00,,0824.0,5.00,0.00,29.9,28.5,00.0,38.3,31.5,17.3,0000.0,0010.32,0004.17,0003.00
2023-05-05 17:48:00,,0824.0,5.01,0.00,30.0,28.6,00.0,38.3,31.5,17.1,0000.0,0010.31,0004.21,0003.02
2023-05-05 17:49:00,,0823.9,4.99,0.00,30.0,28.6,00.0,38.3,31.5,17.0,0000.0,0009.64,0004.23,0003.03
2023-05-05 17:50:00,,0824.0,4.99,0.00,30.0,28.7,00.0,38.3,31.5,17.4,0000.0,0009.52,0004.24,0003.03
2023-05-05 17:51:00,,0823.9,5.01,0.00,30.0,28.7,00.0,38.3,31.6,17.0,0000.0,0009.52,0004.21,0003.03
2023-05-05 17:52:00,,0824.0,5.01,0.00,30.1,28.8,00.0,38.3,31.6,16.8,0000.0,0009.65,0004.24,0003.04
2023-05-05 17:53:00,,0823.9,4.99,0.00,30.1,28.8,00.0,38.4,31.7,16.5,0000.0,0009.66,0004.26,0003.05
2023-05-05 17:54:00,,0823.9,5.01,0.00,30.1,28.8,00.0,38.4,31.7,16.5,0000.0,0010.10,0004.28,0003.05
2023-05-05 17:55:00,,0823.9,5.00,0.00,30.1,28.8,00.0,38.4,31.7,16.5,0000.0,0010.45,0004.29,0003.05
2023-05-05 17:56:00,,0823.8,4.99,0.00,30.1,28.9,00.0,38.4,31.7,16.6,0000.0,0010.00,0004.29,0003.04
2023-05-05 17:57:00,,0823.9,4.99,0.00,30.1,28.9,00.0,38.4,31.7,16.2,0000.0,0010.51,0004.35,0003.05
2023-05-05 17:58:00,,0823.8,5.01,0.00,30.2,28.9,00.0,38.4,31.8,16.5,0000.0,0010.96,0004.41,0003.06
2023-05-05 17:59:00,,0823.9,5.00,0.00,30.2,28.9,00.0,38.4,31.8,16.7,0000.0,0011.53,0004.43,0003.08
